Regional Weather Roundup
Issued by NWS

Home | Current Version | Previous Version | Graphics & Text | Print | Product List | Glossary On
Versions: 1 2 3 4 5 6 7 8 9 10 11 12 13 14 15 16 17 18 19 20 21 22 23 24 25 26 27 28 29 30 31 32 33 34 35 36 37 38 39 40 41 42 43 44 45 46 47 48 49 50
000
ASUS45 KBOI 011510
RWRID
WEATHER ROUNDUP FOR IDAHO
NATIONAL WEATHER SERVICE BOISE ID
900 AM MDT FRI AUG 01 2014

NOTE: "FAIR" INDICATES FEW OR NO CLOUDS BELOW 12000 FEET
WITH NO SIGNIFICANT WEATHER AND/OR OBSTRUCTIONS TO VISIBILITY

IDZ012-014-011600-
SOUTHWEST IDAHO


CITY           SKY/WX    TMP DP  RH WIND       PRES   REMARKS
BOISE          SUNNY     76  49  38 SE8       30.08R
CALDWELL       SUNNY     72  48  43 E3        30.10R
MOUNTAIN HOME  MOSUNNY   73  49  43 E6        30.10R
$$

IDZ016-017-011600-
SOUTHCENTRAL IDAHO


CITY           SKY/WX    TMP DP  RH WIND       PRES   REMARKS
BURLEY         MOSUNNY   65  51  60 SE3       30.18R
JEROME         SUNNY     66  53  63 SE6       30.19R
TWIN FALLS     SUNNY     75  44  33 SW5       30.19R
$$

IDZ019>023-011600-
SOUTHEAST IDAHO


CITY           SKY/WX    TMP DP  RH WIND       PRES   REMARKS
IDAHO FALLS    MOSUNNY   67  48  50 NE5       30.22S
POCATELLO      MOSUNNY   67  47  48 CALM      30.21R
REXBURG        MOSUNNY   62  47  57 VRB3      30.24R
$$

IDZ006-010-011-018-031-032-011600-
CENTRAL IDAHO MOUNTAINS


CITY           SKY/WX    TMP DP  RH WIND       PRES   REMARKS
MCCALL         SUNNY     63  47  55 CALM      30.22S
HAILEY         MOSUNNY   64  48  55 NW9       30.28R
STANLEY          N/A     55  45  68 CALM      30.37S
SALMON         CLOUDY    61  48  63 CALM      30.21R
CHALLIS        PTSUNNY   63  48  58 CALM      30.28R
$$

IDZ002-004-006-007-026-011600-
NORTHERN IDAHO


CITY           SKY/WX    TMP DP  RH WIND       PRES   REMARKS
LEWISTON       PTSUNNY  N/A N/A N/A E5        30.01R
LOWELL           N/A     65  54  67 CALM      30.09S
COEUR D`ALENE  PTSUNNY   70  52  52 E9        30.06S
MULLAN PASS    PTSUNNY   72  33  24 VRB3      30.29R
$$



USA.gov is the U.S. government's official web portal to all federal, state and local government web resources and services.